Location: Unspecified
(0.0000°N, 0.0000°E)
Time: 11:21:36
(UTC+00:00)

SRMSAT - Pass Details

Date: 25 July 2019
Orbit: 848 x 865 km, 20.0° (Epoch: 07 December)

Event Time Altitude Azimuth Distance (km) Brightness Sun altitude
Rises 18:33:43 0° 291° (WNW) 3,423 ? -6.4°
Reaches altitude 10° 18:37:27 10° 313° (NW) 2,487 ? -7.3°
Maximum altitude 18:40:48 15° 348° (NNW) 2,138 ? -8.1°
Drops below altitude 10° 18:44:09 10° 22° (NNE) 2,487 ? -8.8°
Sets 18:47:54 0° 45° (NE) 3,423 ? -9.7°
